Gambrills, MD (21054)

2:23 PM EDT on September 18, 2014 (GMT -0400)
Crofton Walden | Change Station
CLOSE
Current Station
Personal Weather Station
Location: Crofton, MD
Elevation: 131 ft
Nearby Weather Stations
Active Advisory: Coastal Flood Advisory

Elev 131 ft 39.02 °N, 76.67 °W | Updated 1 second ago

Overcast
Overcast
75.8 °F
Feels Like 78 °F
N
1.0
Wind Variable Wind from WSW
Gusts 4.0 mph

Today
High -- | Low -- °F
--% Chance of Precip.
Yesterday
High -- | Low -- °F
Precip. -- in
6:50 AM 7:10 PM
Waning Crescent, 25% visible
Pressure 30.02 in
Visibility 10.0 miles
Clouds Scattered Clouds 3700 ft
Scattered Clouds 4200 ft
Mostly Cloudy 9000 ft
Heat Index 78 °F
Dew Point 65 °F
Humidity 69%
Rainfall 0.00 in
Snow Depth Not available.
UV 4.0 out of 12
Pollen 4.10 out of 12
Air Quality Not available.
Flu Activity Not available.
METAR KFME 181815Z AUTO 07004KT 10SM SCT037 SCT042 BKN090 23/16 A3002 RMK AO1

More Conditions Fewer Conditions

Pressure 30.02 in
Visibility 10.0 miles
Clouds Scattered Clouds 3700 ft
Scattered Clouds 4200 ft
Mostly Cloudy 9000 ft
Heat Index 78 °F
Dew Point 65 °F
Humidity 69%
Rainfall 0.00 in
Snow Depth Not available.
UV 4.0 out of 12
Pollen 4.10 out of 12
Air Quality Not available.
Flu Activity Not available.
METAR KFME 181815Z AUTO 07004KT 10SM SCT037 SCT042 BKN090 23/16 A3002 RMK AO1

More Conditions Fewer Conditions

10-Day Weather Forecast

Almanac

Astronomy

Sep. 18, 2014 Rise Set
Actual Time 6:50 AM EDT 7:10 PM EDT
Civil Twilight 6:23 AM EDT 7:36 PM EDT
Nautical Twilight 5:52 AM EDT 8:08 PM EDT
Astronomical Twilight 5:20 AM EDT 8:40 PM EDT
Moon 1:42 AM EDT 3:58 PM EDT
Length of Visible Light 13h 12m
Length of Day
12h 19m
Tomorrow will be 2m 31s shorter.
Waning Crescent, 25% of the Moon is Illuminated
Today
Waning Crescent
Sep 24
New
Oct 1
First Quarter
Oct 8
Full
Oct 15
Last Quarter

Today's Extremes

State Highs State Lows

Community

WunderPhotos

Upload Photos

1,754,414 photos uploaded!

Nearby

Snow Depth

Station Depth Elevation
No new snow has been reported.

Earthquake Activity

City Distance Mag. Time & Date
No recent earthquake activity has been reported nearby.
Minimum magnitude displayed is 2.5.

Coastal Water Temperatures

Place Temperature
Cambridge, MD 73.9 °F
Tolchester Beach, MD 73.0 °F
Baltimore, MD 77.0 °F

Nearby Weather Stations